Home > Weather > Pratteln > Past weeks

Flag for Switzerland Weather for the Past 2 Weeks in Pratteln, Basel-Land, Switzerland

Now
61 °F

Scattered clouds.


Feels Like: 61 °F
Forecast: 36 / 62 °F
Wind: 7 mph from Northeast

Location: Bale-Mulhouse

Current Time: May 4, 2016 at 5:59:59 PM

Latest Report: May 4, 2016 at 5:00 PM


Visibility: N/A

Pressure: 30.27 "Hg

Humidity: 45%

Dew Point: 39 °F

Location of PrattelnLocation

Historic Weather in Pratteln — Graph

°F

Pratteln Temperature Yesterday

Maximum temperature yesterday: 61 °F (at 11:30 AM)
Minimum temperature yesterday: 43 °F (at 2:30 AM)
Average temperature yesterday: 49 °F

High & Low Weather Summary for the Past Weeks

 TemperatureHumidityPressure
High70 °F (Apr 21, 4:00 PM)100% (Apr 20, 4:30 AM)30.36 "Hg (Apr 20, 4:30 AM)
Low30 °F (Apr 28, 5:30 AM)38% (Apr 21, 6:30 PM)29.68 "Hg (Apr 26, 12:30 PM)
Average48 °F76%30.04 "Hg
* Reported Apr 19 4:11 PM — May 4 4:30 PM, Pratteln, Weather by CustomWeather, © 2016

Note: Actual official high and low records may vary slightly from our data, if they occured in-between our weather recording intervals... More about our weather records

Advertising

Pratteln Weather History for the Previous 24 Hours

Scroll right to see more
 ConditionsComfort  
Time TempWeatherWind HumidityBarometerVisibility
4:30 PM
Wed, May 4
61 °FScattered clouds.7 mph48%30.27 "HgN/A
4:00 PM61 °FPassing clouds.7 mph45%30.27 "HgN/A
3:30 PM61 °FScattered clouds.7 mph52%30.27 "HgN/A
3:00 PM59 °FScattered clouds.7 mph51%30.30 "HgN/A
2:30 PM59 °FScattered clouds.6 mph55%30.30 "HgN/A
1:00 PM57 °FScattered clouds.5 mph59%30.33 "HgN/A
12:30 PM55 °FScattered clouds.7 mph63%30.33 "HgN/A
12:00 PM54 °FPassing clouds.6 mph67%30.33 "HgN/A
11:30 AM52 °FPassing clouds.9 mph77%30.33 "HgN/A
11:00 AM50 °FPassing clouds.8 mph76%30.33 "HgN/A
10:00 AM46 °FPassing clouds.5 mph87%30.33 "HgN/A
9:30 AM46 °FPassing clouds.5 mph87%30.33 "HgN/A
9:00 AM45 °FPassing clouds.2 mph93%30.33 "Hg5 mi
8:30 AM43 °FFog.No wind93%30.36 "Hg4 mi
8:00 AM41 °FQuite cool.No wind100%30.36 "Hg3 mi
7:30 AM37 °FChilly.No wind100%30.33 "Hg3 mi
7:00 AM36 °FChilly.No wind100%30.33 "Hg3 mi
6:30 AM36 °FChilly.No wind100%30.33 "Hg2 mi
6:00 AM36 °FChilly.2 mph100%30.33 "Hg2 mi
5:30 AM37 °FChilly.3 mph93%30.33 "Hg4 mi
5:00 AM37 °FChilly.No wind93%30.33 "Hg4 mi
4:30 AM37 °FChilly.2 mph100%30.33 "Hg2 mi
4:00 AM37 °FFog.2 mph93%30.33 "Hg1 mi
3:30 AM37 °FFog.No wind100%30.33 "Hg1 mi
3:00 AM39 °FFog.2 mph93%30.33 "Hg1 mi
2:30 AM39 °FFog.3 mph93%30.33 "Hg1 mi
2:00 AM39 °FFog.No wind100%30.33 "Hg1 mi
1:30 AM41 °FLight fog.No wind93%30.33 "Hg1 mi
1:00 AM41 °FFog.No wind93%30.33 "Hg1 mi
12:30 AM43 °FLight fog.No wind93%30.33 "Hg3 mi
12:00 AM45 °FClear.1 mph93%30.33 "Hg5 mi
11:30 PM
Tue, May 3
45 °FClear.1 mph93%30.33 "Hg10 mi
11:00 PM46 °FClear.1 mph87%30.33 "Hg10 mi
10:30 PM46 °FPassing clouds.2 mph93%30.33 "HgN/A
10:00 PM48 °FPassing clouds.3 mph87%30.30 "HgN/A
9:00 PM48 °FSunny.2 mph82%30.30 "Hg10 mi
8:30 PM48 °FBroken clouds.2 mph76%30.27 "HgN/A
8:00 PM48 °FBroken clouds.5 mph87%30.27 "HgN/A
7:30 PM48 °FBroken clouds.2 mph87%30.27 "HgN/A
7:00 PM48 °FSprinkles. Broken clouds.3 mph87%30.24 "HgN/A
6:30 PM48 °FSprinkles. Broken clouds.15 mph87%30.24 "HgN/A
6:00 PM54 °FBroken clouds.2 mph77%30.24 "HgN/A
5:30 PM54 °FScattered clouds.2 mph72%30.21 "HgN/A
5:00 PM54 °FPassing clouds.1 mph77%30.21 "HgN/A
Weather by CustomWeather, © 2016

See weather overviewHow to use our weather pages